Regional Weather Roundup
Issued by NWS

Home | Current Version | Previous Version | Graphics & Text | Print | Product List | Glossary On
Versions: 1 2 3 4 5 6 7 8 9 10 11 12 13 14 15 16 17 18 19 20 21 22 23 24 25 26 27 28 29 30 31 32 33 34 35 36 37 38 39 40 41 42 43 44 45 46 47 48
000
ASUS45 KSLC 271110
RWRUT

UTAH REGIONAL WEATHER ROUNDUP
NATIONAL WEATHER SERVICE SALT LAKE CITY UT
400 AM MST SAT DEC 27 2014

UTZ001>011-023>025-271200-

NORTHERN UTAH

CITY           SKY/WX    TMP DP  RH WIND       PRES   REMARKS
BRIGHAM CITY   CLEAR     11   8  87 CALM      30.31R
HILL AFB       NOT AVBL
LOGAN          CLEAR      2  -2  83 SE3       30.30R
OGDEN          MOCLDY    16   9  74 S8        30.28R WCI   5
PROVO AIRPORT  PTCLDY    14   9  79 SE3       30.29R
SALT LAKE CITY MOCLDY    20  14  77 S5        30.30R WCI  13
VERNAL         CLOUDY    15  13  91 CALM      30.21R
WENDOVER       PTCLDY    27  10  50 NW15      30.30S WCI  15
HEBER CITY     PTCLDY     3   0  85 CALM      30.24R
WEST JORDAN    CLOUDY    16  12  86 CALM      30.29R

$$

UTZ012>022-026-027-271200-

SOUTHERN/CENTRAL UTAH

CITY           SKY/WX    TMP DP  RH WIND       PRES   REMARKS
BLANDING       CLEAR     14   9  82 N5        30.19R WCI   6
BRYCE CANYON   PTCLDY    -1  -6  79 W5        30.13R WCI -11
CEDAR CITY     CLOUDY    13   8  81 NE3       30.21R
DELTA          PTCLDY    10   8  92 E5        30.29R WCI   2
MILFORD        CLOUDY    13  10  88 CALM      30.26R
MOAB/CYNLANDS  PTCLDY    15  11  83 CALM      30.21R
PRICE          CLEAR     18   4  54 W8        30.16R WCI   8
ST GEORGE      MOSUNNY   25   9  50 CALM      30.29R
KANAB          CLEAR     23   5  46 NW7       30.25R WCI  15

$$

REGIONAL REPORTS     COLORADO/ARIZONA

CITY           SKY/WX    TMP DP  RH WIND       PRES   REMARKS
CRAIG, CO      FLURRIES   1  -3  83 W3        30.18R
GRAND JUNCTION PTCLDY    11   5  77 CALM      30.21R
RIFLE          CLOUDY    13   7  77 S3        30.20R
MONTROSE       CLOUDY    17  12  80 CALM      30.19R
CORTEZ         CLEAR      5   2  87 NE8       30.13R WCI  -8
PAGE, AZ       PTCLDY    29   6  38 NW5       30.20R WCI  24
GRAND CANYON   CLEAR      6   3  87 CALM      30.11S
KINGMAN        CLEAR     26  15  63 E8        30.22R WCI  18
FLAGSTAFF      CLEAR      6   1  80 CALM      30.07R

$$

REGIONAL REPORTS    NEVADA/IDAHO/WYOMING

CITY           SKY/WX    TMP DP  RH WIND       PRES   REMARKS
LAS VEGAS, NV  CLEAR     41   9  26 NW16      30.27R
ELY            PTCLDY     1  -1  91 S8        30.27R WCI -13
ELKO           CLEAR     13   9  84 CALM      30.30S
POCATELLO, ID  CLOUDY    22  18  85 SW9       30.28R WCI  12
BURLEY         CLEAR     16   9  74 SW9       30.28R WCI   4
EVANSTON, WY   PTCLDY     8   5  87 SW7       30.15R WCI  -3
ROCK SPRINGS   MOCLDY     5   2  87 SW13      30.11R WCI -12
KEMMERER       MOCLDY     1   0  92 NW5       30.12R WCI  -8

$$


USA.gov is the U.S. government's official web portal to all federal, state and local government web resources and services.